Location: �perlecques
(50.8057°N, 2.1521°E)
Time: 16:36:45
(UTC+00:00)

VELOX 1 - Visible Passes

Search period start: 25 September 2021 00:00
Search period end: 05 October 2021 00:00
Orbit: 626 x 643 km, 98.3° (Epoch: 25 September)

Date Brightness Start Highest point End Pass type
(mag) Time Alt. Az. Time Alt. Az. Time Alt. Az.
25 Sep ? 02:43:13 29° SE 02:45:05 47° ENE 02:49:17 10° N visible
25 Sep ? 04:20:42 21° WSW 04:21:39 23° W 04:25:09 10° NW visible
26 Sep ? 01:29:30 10° ENE 01:31:12 12° NE 01:32:53 10° NNE visible
26 Sep ? 03:05:31 45° SE 03:06:48 74° ENE 03:11:11 10° NNW visible
26 Sep ? 04:43:00 14° W 04:43:41 15° W 04:46:10 10° NW visible
27 Sep ? 01:50:20 12° E 01:52:42 18° ENE 01:55:36 10° NNE visible
27 Sep ? 03:27:49 56° SSW 03:28:35 70° WSW 03:32:59 10° NNW visible
27 Sep ? 18:23:06 10° NNW 18:24:47 12° NW 18:26:27 10° WNW visible
28 Sep ? 02:12:38 20° E 02:14:17 26° ENE 02:17:52 10° N visible
28 Sep ? 03:50:07 43° WSW 03:50:27 44° W 03:54:39 10° NNW visible
29 Sep ? 02:34:56 33° E 02:35:55 38° ENE 02:39:58 10° N visible
29 Sep ? 04:12:26 28° W 04:12:26 28° W 04:16:09 10° NW visible
30 Sep ? 02:57:16 57° E 02:57:36 59° ENE 03:01:55 10° N visible
30 Sep ? 04:34:45 18° W 04:34:45 18° W 04:37:23 10° NW visible
01 Oct ? 01:42:05 13° ENE 01:43:36 15° NE 01:46:02 10° NNE visible
01 Oct ? 03:19:35 81° NW 03:19:35 81° NW 03:23:46 10° NNW visible
01 Oct ? 04:57:03 11° WNW 04:57:03 11° WNW 04:57:51 10° WNW visible
01 Oct ? 18:13:20 10° NNW 18:15:41 14° NW 18:18:03 10° W visible
02 Oct ? 02:04:24 20° ENE 02:05:09 21° ENE 02:08:27 10° N visible
02 Oct ? 03:41:53 48° WNW 03:41:53 48° WNW 03:45:29 10° NNW visible
03 Oct ? 02:26:44 31° ENE 02:26:45 31° ENE 02:30:37 10° N visible
03 Oct ? 04:04:13 29° WNW 04:04:13 29° WNW 04:07:04 10° NNW visible
04 Oct ? 02:49:03 44° NE 02:49:03 44° NE 02:52:37 10° N visible
04 Oct ? 04:26:32 19° WNW 04:26:32 19° WNW 04:28:27 10° NW visible
